Regional Weather Roundup
Issued by NWS Sioux Falls, SD

Home | Current Version | Previous Version | Graphics & Text | Print | Product List | Glossary On
Versions: 1 2 3 4 5 6 7 8 9 10 11 12 13 14 15 16 17 18 19 20 21 22 23 24 25 26 27 28 29 30 31 32 33 34 35 36 37 38 39 40 41 42 43 44 45 46 47 48 49 50
123
ASUS43 KFSD 272002
RWRFSD

WEATHER ROUNDUP FOR SE SOUTH DAKOTA/SW MINNESOTA/NW IOWA
NATIONAL WEATHER SERVICE SIOUX FALLS SD
300 PM CDT SAT AUG 27 2016

NOTE: "FAIR" INDICATES FEW OR NO CLOUDS BELOW 12,000 FEET WITH NO
SIGNIFICANT WEATHER AND OR OBSTRUCTIONS TO VISIBILITY.


SDZ038>040-050-052>070-272100-
SOUTHEAST SOUTH DAKOTA

CITY           SKY/WX    TMP DP  RH WIND       PRES   REMARKS
BROOKINGS      PTSUNNY   70  60  70 S7        29.99S
CHAMBERLAIN    SUNNY     84  54  35 SW6       29.94F
HURON          MOSUNNY   77  62  59 S9        29.94F
MADISON        FAIR      72  64  78 SW8       29.99F
MITCHELL       SUNNY     80  61  52 SW9       29.95F
SIOUX FALLS    MOSUNNY   73  62  68 S3        29.99F
WINNER         FAIR      85  56  37 S9        29.94F
YANKTON        MOSUNNY   79  61  53 S9        29.96F
$$

MNZ071-072-080-081-089-090-097-098-272100-
SOUTHWEST MINNESOTA

CITY           SKY/WX    TMP DP  RH WIND       PRES   REMARKS
FAIRMONT       CLOUDY    71  65  81 SW8       30.01F
JACKSON          N/A     70  61  73 SW8       30.02F
LUVERNE        PTSUNNY   70  59  68 S6        30.01F
MARSHALL       CLOUDY    70  61  73 SW7       29.99F
MONTEVIDEO     CLOUDY    72  63  73 SW6       30.00F
REDWOOD FALLS  CLOUDY    69  61  75 S8        29.98F
TRACY          CLOUDY    71  63  75 SW7       30.00S
WINDOM         CLOUDY    70  63  78 SW8       30.01S
WORTHINGTON    CLOUDY    71  64  78 SW9       30.02S
$$

IAZ001>003-012>014-020>022-031-032-NEZ013-014-SDZ071-272100-
NORTHWEST IOWA

CITY           SKY/WX    TMP DP  RH WIND       PRES   REMARKS
CHEROKEE       CLOUDY    74  66  77 SW6       30.02R
DENISON        PTSUNNY   77  66  69 SW8       30.00F
ESTHERVILLE    CLOUDY    70  65  84 SW9       30.01S
LE MARS        PTSUNNY   75  63  64 SW6G12    30.01F
ORANGE CITY    CLOUDY    72  63  73 SW7       30.02S
SHELDON        CLOUDY    72  64  78 SW6       30.01R
SIOUX CITY     PTSUNNY   76  64  66 SW6       30.00F
SPENCER        CLOUDY    72  63  73 SW7       30.02S
STORM LAKE       N/A     75  66  73 W10       30.03S
$$

ABBREVIATIONS USED IN REMARKS
   TC - TEMPERATURE IN CELSIUS
  WCI - WIND CHILL INDEX
   HX - HEAT INDEX
  VSB - VISIBILITY





USA.gov is the U.S. government's official web portal to all federal, state and local government web resources and services.